Flag for U.S.A. Weather past 2 weeks in Richmond, Virginia, U.S.A.

Now
53 °F

Passing clouds.


Feels Like: 50 °F
Forecast: 47 / 57 °F
Wind: 10 mph from Southwest

Location: Richmond International Airport

Current Time: Dec 28, 2014 at 6:41:25 AM

Latest Report: Dec 28, 2014 at 5:54 AM


Visibility: 10 mi

Pressure: 29.99 "Hg

Humidity: 56%

Dew point: 38 °F

Location of RichmondLocation

Historic Weather in Richmond — Graph

°F

Richmond temperature yesterday

Maximum temperature yesterday: 65 °F (at 2:54 PM)
Minimum temperature yesterday: 31 °F (at 6:54 AM)
Average temperature yesterday: 48 °F

Past Weeks' High & Low Weather Summary

 TemperatureHumidityPressure
High66 °F (Dec 24, 11:54 PM)94% (Dec 24, 4:03 PM)30.37 "Hg (Dec 24, 4:03 PM)
Low28 °F (Dec 13, 5:54 AM)30% (Dec 13, 2:54 PM)29.62 "Hg (Dec 24, 10:54 PM)
Average43 °F69%30.11 "Hg
* Reported Dec 13 4:54 AM — Dec 28 4:54 AM, Richmond, Weather by CustomWeather, © 2014

Note: Actual official high and low records may vary slightly from our data, if they occured in-between our weather recording intervals... More about our weather records

Advertising

Richmond weather history for previous 24 hours

 ConditionsComfort  
Time TempWeatherWind HumidityBarometerVisibility
4:54 AM
Dec 28
49 °FPartly cloudy.5 mph66%30.00 "Hg10 mi
3:54 AM48 °FPassing clouds.8 mph68%30.03 "Hg10 mi
2:54 AM48 °FPassing clouds.8 mph68%30.07 "Hg10 mi
1:54 AM48 °FPassing clouds.8 mph68%30.09 "Hg10 mi
12:54 AM51 °FPassing clouds.8 mph63%30.10 "Hg10 mi
11:54 PM
Dec 27
50 °FPartly cloudy.6 mph66%30.13 "Hg10 mi
10:54 PM52 °FPassing clouds.6 mph59%30.16 "Hg10 mi
9:54 PM51 °FPassing clouds.6 mph61%30.19 "Hg10 mi
8:54 PM51 °FMostly cloudy.7 mph61%30.19 "Hg10 mi
7:54 PM52 °FPassing clouds.9 mph59%30.21 "Hg10 mi
6:54 PM51 °FPassing clouds.6 mph59%30.22 "Hg10 mi
5:54 PM57 °FPassing clouds.6 mph46%30.20 "Hg10 mi
4:54 PM56 °FPartly sunny.6 mph47%30.20 "Hg10 mi
3:54 PM63 °FPartly sunny.7 mph38%30.20 "Hg10 mi
2:54 PM65 °FPartly sunny.7 mph32%30.20 "Hg10 mi
1:54 PM63 °FPartly sunny.7 mph37%30.21 "Hg10 mi
12:54 PM62 °FPartly sunny.9 mph39%30.23 "Hg10 mi
11:54 AM60 °FScattered clouds.6 mph44%30.27 "Hg10 mi
10:54 AM54 °FScattered clouds.5 mph55%30.31 "Hg10 mi
9:54 AM47 °FScattered clouds.6 mph69%30.32 "Hg10 mi
8:54 AM41 °FScattered clouds.No wind82%30.30 "Hg10 mi
7:54 AM36 °FScattered clouds.3 mph85%30.31 "Hg10 mi
6:54 AM31 °FPassing clouds.5 mph85%30.31 "Hg10 mi
Weather by CustomWeather, © 2014

See weather overviewHow to use our weather pages